Location: Eferding
(48.3167°N, 14.0167°E)
Time: 23:55:16
(UTC+00:00)

USA 229 DEB - Pass Details

Date: 12 November 2019
Orbit: 997 x 1215 km, 63.4° (Epoch: 02 December)

Event Time Altitude Azimuth Distance (km) Brightness Sun altitude
Rises 18:26:39 0° 235° (SW) 3,736 7.2 -29.5°
Reaches altitude 10° 18:29:15 10° 239° (WSW) 2,807 6.5 -29.9°
Maximum altitude 18:35:46 59° 319° (NW) 1,207 4.0 -31.0°
Enters shadow 18:37:27 47° 8° (N) 1,385 4.2 -31.2°
